Logan, UT

3:39 PM MDT on March 23, 2017 (GMT -0600)
Logan-Cache

Weather History for KLGU - August, 2013

Change the Weather History Date:

Monday, August 5, 2013

  Actual Average Record
Temperature  
Mean Temperature 70 °F -  
Max Temperature 93 °F 89 °F 102 °F (1979)
Min Temperature 48 °F 54 °F 35 °F (1980)
Cooling Degree Days 6    
Growing Degree Days 20 (Base 50)    
Moisture  
Dew Point 39 °F    
Average Humidity 37    
Maximum Humidity 74    
Minimum Humidity 10    
Precipitation  
Precipitation 0.00 in - - ()
Sea Level Pressure  
Sea Level Pressure 29.88 in    
Wind  
Wind Speed 2 mph (South)    
Max Wind Speed 12 mph    
Max Gust Speed -    
Visibility 10 miles    
Events      
Averages and records for this station are not official NWS values.
T = Trace of Precipitation, MM = Missing Value Source: NWS Daily Summary

Daily Weather History Graph

Daily Weather History Graph

Search for Another Location

Airport or City:

Trip Planner

Search our weather history database for the weather conditions in past years. The results will help you decide how hot, cold, wet, or windy it might be!

Date:

Astronomy

Aug. 05, 2013 Rise Set
Actual Time 6:25 AM MDT 8:40 PM MDT
Civil Twilight 5:54 AM MDT 9:11 PM MDT
Nautical Twilight 5:16 AM MDT 9:49 PM MDT
Astronomical Twilight 4:34 AM MDT 10:31 PM MDT
Moon 5:24 AM MDT (8/5) 7:42 PM MDT (8/5)
Length of Visible Light 15h 16m
Length of Day
14h 14m
Waning Crescent, 1% of the Moon is Illuminated
Aug 5
Waning Crescent
Aug 6
New
Aug 14
First Quarter
Aug 20
Full
Aug 28
Last Quarter

Hourly Weather History & Observations

Time (MDT) Temp. Dew Point Humidity Pressure Visibility Wind Dir Wind Speed Gust Speed Precip Events Conditions
12:51 AM 60.1 °F 41.0 °F 49% 29.90 in 10.0 mi Calm Calm - N/A   Clear
1:51 AM 57.9 °F 41.0 °F 53% 29.90 in 10.0 mi Calm Calm - N/A   Clear
2:51 AM 55.0 °F 41.0 °F 59% 29.91 in 10.0 mi Calm Calm - N/A   Clear
3:51 AM 53.1 °F 41.0 °F 64% 29.91 in 10.0 mi Calm Calm - N/A   Clear
4:51 AM 54.0 °F 41.0 °F 62% 29.91 in 10.0 mi Calm Calm - N/A   Clear
5:51 AM 48.9 °F 41.0 °F 74% 29.93 in 10.0 mi Calm Calm - N/A   Clear
6:51 AM 50.0 °F 42.1 °F 74% 29.94 in 10.0 mi Calm Calm - N/A   Clear
7:44 AM 55.4 °F 42.8 °F 63% 30.09 in 10.0 mi Calm Calm - N/A   Partly Cloudy
7:51 AM 55.0 °F 42.1 °F 62% 29.94 in 10.0 mi Calm Calm - N/A   Clear
8:51 AM 64.9 °F 39.9 °F 40% 29.95 in 10.0 mi Calm Calm - N/A   Clear
9:51 AM 71.1 °F 37.0 °F 29% 29.92 in 10.0 mi Variable 3.5 mph - N/A   Clear
10:51 AM 75.9 °F 39.0 °F 26% 29.91 in 10.0 mi Calm Calm - N/A   Clear
11:51 AM 81.0 °F 35.1 °F 19% 29.93 in 10.0 mi Variable 3.5 mph - N/A   Clear
12:51 PM 84.9 °F 39.9 °F 20% 29.91 in 10.0 mi Calm Calm - N/A   Clear
1:51 PM 89.1 °F 42.1 °F 19% 29.88 in 10.0 mi Variable 5.8 mph - N/A   Clear
2:51 PM 91.0 °F 39.0 °F 16% 29.86 in 10.0 mi Calm Calm - N/A   Clear
3:51 PM 93.0 °F 37.9 °F 15% 29.84 in 10.0 mi SW 11.5 mph - N/A   Clear
4:51 PM 93.0 °F 35.1 °F 13% 29.82 in 10.0 mi SSW 5.8 mph - N/A   Clear
5:51 PM 91.9 °F 32.0 °F 12% 29.81 in 10.0 mi South 4.6 mph - N/A   Clear
6:51 PM 91.0 °F 27.0 °F 10% 29.80 in 10.0 mi South 6.9 mph - N/A   Clear
7:51 PM 90.0 °F 34.0 °F 14% 29.79 in 10.0 mi SSE 5.8 mph - N/A   Clear
8:51 PM 82.0 °F 41.0 °F 23% 29.79 in 10.0 mi South 6.9 mph - N/A   Clear
9:51 PM 79.0 °F 35.1 °F 20% 29.81 in 10.0 mi SE 5.8 mph - N/A   Clear
10:51 PM 69.1 °F 39.9 °F 35% 29.82 in 10.0 mi Variable 6.9 mph - N/A   Clear
11:51 PM 66.0 °F 43.0 °F 43% 29.82 in 10.0 mi Calm Calm - N/A   Clear